SCP
1 0 1 2 1 1 1 1 1 1 0 0 0 0 0 0 -0 0 0 0 0 0 0 0 0 0 0 0 0 0 0 0 0 0 0 0 0 0 0 0 0 0 0
2 2 2 2 0 1 1 1 1 0 0 0 0 0 0 0 0 0 0 0 0 0 0 0 0 0 0 0 0 0 0 0 0 0 0 0 0 0 0 0 0 0 0
0 1 1 1 0 0 1 1 1 0 0 0 0 0 0 0 0 0 0 0 0 0 0 0 0 0 0 0 0 0 0 0 0 0 0 0 0 0 0 0 0 0 0
-2 -2 -0 0 -0 0 1 1 0 0 0 0 0 0 0 0 0 0 0 0 0 0 0 0 0 0 0 0 0 0 0 0 0 0 0 0 0 0 0 0 0 0 0
-3 -1 -0 -0 0 0 0 0 0 0 0 0 0 0 0 0 0 0 0 0 0 0 0 0 0 0 0 0 0 0 0 0 0 0 0 0 0 0 0 0 0 0 0
-0 0 0 0 0 0 0 0 0 0 0 0 0 0 0 0 0 0 0 0 0 0 0 0 0 0 0 0 0 0 0 0 0 0 0 0 0 0 0 0 0 0 0
2 2 2 0 0 -0 -0 -0 0 0 0 0 0 0 0 0 0 0 0 0 0 0 -0 -0 0 0 0 0 0 0 0 0 0 0 0 0 0 0 0 0 0 0 0
3 2 1 0 0 0 -0 -0 -0 0 0 0 0 0 0 0 0 0 0 0 0 0 -0 -0 0 0 0 0 0 -0 0 0 0 0 0 0 0 0 0 0 0 0 0
2 0 0 1 1 0 -0 -0 -0 0 0 0 0 0 0 0 0 0 0 0 0 0 -0 0 0 0 0 0 0 0 0 0 0 0 0 0 0 0 0 0 0 0 0
1 1 1 1 1 0 0 -1 -1 -0 -0 0 0 0 0 0 0 0 0 0 0 0 0 0 0 0 0 0 0 0 0 0 0 -0 0 0 0 0 0 0 0 0 0
0 0 0 0 0 -0 -0 -0 -0 -0 0 0 0 1 0 0 0 0 0 0 0 0 0 0 0 0 0 0 0 0 0 0 0 0 0 0 0 0 0 0 0 0 0
1 0 0 0 0 -0 -0 -0 -0 -0 -0 0 0 0 0 0 0 0 0 0 0 0 0 0 0 0 0 0 0 0 0 0 0 0 0 0 0 0 0 0 0 0 0
0 0 0 0 -0 -0 -0 -1 -0 -0 -0 0 0 1 0 0 0 0 0 0 0 0 0 0 0 0 0 0 0 0 0 0 0 0 0 0 0 0 0 0 0 0 0
0 0 0 0 0 0 -0 -1 -0 -0 0 0 1 1 0 0 0 0 0 0 0 0 0 0 0 0 0 0 0 0 0 0 0 0 0 0 0 0 0 0 0 0 0
0 1 1 1 1 1 0 -0 -0 -1 0 0 0 0 0 0 0 0 0 0 0 0 0 0 0 0 0 0 0 0 0 0 0 0 0 0 0 0 0 0 0 0 0
1 3 2 1 1 0 1 1 1 1 -0 0 1 1 1 1 1 0 0 0 0 0 0 0 0 0 0 0 0 0 0 0 0 0 0 0 0 0 0 0 0 0 0
1 2 1 0 1 1 1 1 2 1 2 2 2 3 1 1 1 1 1 0 0 0 0 0 0 0 0 0 0 0 0 0 0 0 0 0 0 0 0 0 0 0 0
0 0 1 1 1 1 1 2 3 3 5 5 4 3 3 1 1 1 1 1 0 0 0 0 0 0 0 0 0 0 0 0 0 0 0 0 0 0 0 0 0 0 0
0 0 0 0 2 1 2 2 3 5 6 6 4 6 6 5 2 2 1 1 1 1 0 0 0 0 0 0 0 0 0 0 0 0 0 0 0 0 0 0 0 0 0
0 0 0 0 0 0 0 0 3 4 5 7 8 10 7 7 3 1 2 2 2 1 0 0 0 0 0 0 0 0 0 0 0 0 0 0 0 0 0 0 0 0 0
0 0 1 1 1 1 0 0 1 1 2 4 2 0 0 -0 -0 2 2 2 2 1 1 0 0 0 0 0 0 0 0 0 0 0 0 0 0 0 0 0 0 0 0
0 0 0 1 1 2 2 2 2 0 0 0 0 0 0 0 -0 0 0 1 1 1 1 0 0 0 0 0 0 0 0 0 0 0 0 0 0 0 0 0 0 0 0
0 0 0 0 0 1 1 3 1 0 0 0 0 0 -0 0 -0 0 0 0 0 1 0 0 0 0 0 0 0 0 0 0 0 0 0 0 0 0 0 0 0 0 0
0 0 0 0 0 0 0 2 1 0 0 0 0 0 0 -0 0 0 -0 -0 0 0 0 0 0 0 0 0 0 0 0 0 0 0 0 0 0 0 0 0 0 0 0
0 -0 -0 -0 0 0 0 0 0 0 0 0 0 0 0 -0 0 0 0 0 0 0 0 0 0 0 0 0 0 0 0 0 0 0 0 0 0 0 0 0 0 0 0
-0 -0 -0 -0 -0 0 0 0 0 0 0 0 0 0 0 0 0 0 0 0 0 0 0 0 0 0 0 0 0 0 0 0 0 0 0 0 0 0 0 0 0 0 0
Wind_Speed_500mb
73 64 52 44 45 40 36 36 34 28 23 22 23 20 10 7 17 29 40 48 54 52 54 56 52 51 48 39 34 32 28 31 31 36 36 33 34 31 29 34 41 43 43
78 69 59 49 45 40 30 26 29 26 23 20 18 18 12 16 18 22 19 23 32 40 57 58 49 56 49 46 44 39 35 35 32 36 32 31 35 35 33 37 37 35 37
86 78 69 56 47 43 34 27 26 27 27 24 20 20 24 26 18 12 9 9 13 16 36 44 43 51 48 39 35 43 42 43 38 34 30 13 21 23 28 25 26 22 14
87 85 77 62 50 45 36 29 27 25 31 28 26 20 23 17 14 14 11 8 10 6 16 29 32 34 39 43 37 36 36 39 41 35 42 43 36 20 12 14 11 15 10
95 89 82 60 48 42 34 34 29 28 39 31 28 22 18 12 11 13 8 4 8 8 8 14 22 22 30 33 34 32 34 39 40 39 43 46 41 40 35 26 17 13 12
87 84 72 54 49 42 34 30 33 33 35 33 35 29 24 23 17 14 12 4 2 4 6 11 14 13 16 23 27 26 24 21 27 29 34 39 37 34 32 30 20 25 31
87 81 72 58 54 51 42 34 31 33 42 35 30 37 30 24 23 18 13 6 3 7 2 5 7 8 7 8 19 20 17 12 16 16 13 25 30 30 25 27 20 20 27
82 80 71 63 56 54 49 42 34 28 43 38 33 29 28 25 19 19 19 14 5 8 9 3 5 6 12 13 9 12 12 9 16 12 10 21 24 26 28 29 27 22 24
83 82 75 65 55 57 58 48 38 29 34 40 33 35 25 25 24 25 19 13 8 6 7 7 3 4 8 8 12 14 12 12 9 11 14 12 15 23 27 34 30 36 32
80 80 72 61 51 54 55 51 42 32 29 35 34 30 21 27 28 28 24 28 21 18 12 10 7 8 8 5 8 12 15 17 15 14 7 5 8 15 24 27 27 31 29
70 70 62 55 50 53 53 55 46 38 34 37 31 25 21 25 29 32 32 30 30 26 30 26 22 14 6 2 2 5 5 4 8 6 14 17 17 20 24 26 26 30 31
70 67 64 64 58 52 52 59 52 41 38 37 34 27 24 27 29 32 29 27 30 23 20 17 22 16 10 10 11 6 12 7 7 6 15 14 18 24 17 20 21 28 34
70 69 71 62 58 57 61 60 54 42 36 43 41 35 31 30 32 31 30 23 26 19 22 21 16 12 20 13 10 9 14 11 12 11 12 18 17 16 21 20 20 24 36
72 71 71 62 62 62 69 63 55 44 37 43 46 44 40 33 30 35 31 28 25 21 20 15 13 15 14 16 15 14 14 17 19 13 14 12 12 15 20 19 17 19 32
37 55 62 59 57 62 67 61 51 42 39 42 51 47 43 34 30 31 36 33 28 26 22 24 22 19 17 21 15 25 20 8 15 17 15 7 11 18 16 15 10 11 10
6 25 45 39 38 45 55 50 45 38 54 53 53 46 43 41 34 37 38 36 30 26 32 32 30 26 25 25 22 26 24 17 16 9 8 8 5 5 4 7 10 7 12
28 36 22 28 30 37 40 42 44 45 59 56 53 51 49 51 43 40 42 38 36 35 35 32 32 23 24 22 20 28 31 25 23 18 12 9 5 6 5 1 12 14 14
31 31 27 22 22 11 34 41 43 55 53 54 55 62 62 60 51 48 51 48 44 39 38 37 31 29 30 22 20 25 26 29 31 24 19 11 8 2 2 4 3 4 13
30 29 32 28 23 19 13 22 57 44 58 68 65 69 70 69 62 64 58 51 46 44 39 35 32 34 28 17 19 24 27 30 37 32 27 16 11 11 7 10 10 3 4
34 38 41 27 21 22 28 35 23 18 53 70 79 75 76 74 84 71 59 51 49 50 41 37 37 32 23 15 15 19 26 34 33 32 28 23 17 17 12 20 14 12 8
25 24 24 34 31 32 35 40 27 31 36 45 60 46 62 125 100 51 34 48 55 52 42 36 29 27 15 9 8 15 28 37 36 32 24 20 18 17 17 15 19 16 16
18 19 20 18 21 30 34 38 25 32 42 46 55 37 38 51 95 34 48 54 56 46 44 39 29 26 17 6 6 16 29 35 34 27 23 17 16 13 12 12 16 22 21
30 29 30 29 21 18 24 29 35 40 31 30 33 27 31 23 62 48 67 62 53 51 46 35 24 28 27 16 10 12 26 29 29 25 22 19 16 16 14 9 12 17 23
35 29 29 29 27 25 25 27 34 36 31 20 18 22 16 22 22 25 62 55 43 38 40 39 31 27 30 22 14 11 19 22 21 21 21 21 25 24 22 23 23 23 24
28 33 35 36 35 28 21 17 27 30 28 25 25 17 16 11 23 33 35 37 46 42 47 38 37 30 35 26 18 12 13 16 15 12 16 14 12 15 13 13 16 14 20
25 35 34 33 32 31 27 22 18 17 19 22 18 17 16 22 24 31 39 43 39 37 34 33 27 31 28 19 15 15 15 11 11 17 19 19 14 18 20 22 26 24 27
Wind_Direction_500mb
168 172 175 182 188 204 213 217 219 213 197 178 172 172 163 199 210 218 235 243 247 244 242 239 228 225 225 222 228 237 232 240 228 239 237 230 239 248 254 249 268 263 262
167 168 173 183 196 204 208 203 208 204 205 197 184 172 175 222 247 265 246 255 256 247 234 235 235 232 233 231 232 238 250 257 250 250 251 252 256 259 260 268 268 264 268
164 168 173 183 193 204 210 205 209 202 194 183 184 193 203 223 241 247 242 293 283 260 233 235 237 232 235 237 242 235 247 246 242 247 243 225 244 246 248 269 267 266 243
174 173 175 183 197 202 208 208 212 200 190 196 205 239 217 230 251 244 292 306 329 315 229 224 225 222 234 238 236 243 249 251 251 246 244 245 252 245 254 259 248 256 200
176 175 178 187 191 196 205 209 208 197 188 194 203 212 226 243 241 248 244 307 321 334 225 208 220 217 229 221 232 248 247 249 254 254 251 250 246 247 252 259 266 261 268
171 178 178 183 182 193 207 213 213 200 188 202 209 207 218 229 233 249 221 244 44 355 119 167 189 197 210 227 239 242 240 247 254 247 247 239 228 238 247 248 268 271 267
168 177 176 177 175 190 204 213 211 203 197 205 212 219 224 223 233 230 197 170 314 293 161 154 185 219 245 225 233 236 241 252 249 226 222 236 242 245 245 251 240 238 253
167 176 177 177 176 186 201 214 212 207 201 201 209 210 222 232 233 195 196 203 246 241 200 204 155 222 224 236 238 216 241 230 253 250 244 255 254 250 246 254 252 233 256
164 172 177 178 181 187 197 212 209 210 205 199 208 213 218 224 212 204 200 195 220 175 148 128 105 333 296 239 237 240 237 238 247 249 231 235 259 261 261 257 254 253 244
161 170 176 182 191 193 194 206 213 221 209 195 198 206 221 219 218 209 195 191 199 216 173 166 216 270 301 276 253 238 234 241 233 229 243 233 248 270 268 262 255 248 247
163 176 178 180 182 185 190 202 209 217 199 188 189 200 218 210 210 198 195 199 205 210 224 225 208 220 200 141 295 295 278 275 271 285 265 265 272 274 270 270 260 249 243
170 171 175 174 180 188 189 203 208 217 207 194 192 211 227 205 207 206 211 221 224 223 200 187 185 197 192 202 204 258 264 277 264 288 286 281 271 274 280 285 271 255 243
169 175 176 181 186 188 191 201 208 218 211 198 203 208 227 213 215 208 216 227 220 214 185 187 190 201 185 212 213 258 228 222 242 254 262 273 274 274 283 277 270 257 243
169 177 179 182 187 191 195 200 207 220 217 202 202 212 221 224 221 209 215 227 224 216 185 186 188 200 211 214 214 231 253 240 220 229 263 255 260 279 288 286 278 254 242
164 180 174 178 184 195 202 201 209 218 216 213 209 215 217 221 219 217 210 225 233 216 200 208 214 218 230 247 243 223 236 210 189 201 229 265 292 298 291 264 259 247 245
130 122 153 175 177 189 204 206 212 220 222 222 221 217 218 216 219 217 218 223 230 210 215 216 223 238 240 243 241 232 221 216 213 182 212 246 292 27 326 233 200 224 231
16 64 126 189 202 212 219 213 221 228 226 232 228 222 224 218 212 208 216 227 225 222 233 234 228 235 246 252 257 221 226 223 204 197 194 208 184 257 23 190 204 217 230
3 352 12 17 30 24 240 247 248 243 229 236 233 230 226 221 214 208 206 215 223 223 233 231 222 227 242 256 240 229 227 205 203 199 179 213 224 200 95 91 103 244 218
20 349 338 344 4 344 310 257 251 249 236 230 238 234 225 224 222 213 208 218 215 226 224 229 233 230 237 246 248 230 223 206 202 202 204 205 228 193 208 221 179 268 29
14 360 350 337 318 297 287 269 297 268 252 249 246 233 239 235 235 213 206 219 218 221 218 225 234 237 232 230 239 220 207 200 201 196 198 198 212 222 213 209 220 206 207
351 348 354 351 333 315 297 294 298 275 269 265 262 271 291 308 324 172 205 207 215 221 213 212 223 233 222 224 233 205 204 199 194 193 197 196 206 203 218 218 222 238 252
329 327 325 333 348 339 333 329 312 271 276 280 278 281 282 271 299 293 241 227 218 215 201 195 210 232 218 232 203 188 177 187 196 200 191 201 210 221 208 221 227 232 238
339 336 327 309 301 314 315 321 317 319 317 306 285 269 312 338 1 248 233 224 212 206 198 204 205 208 226 223 205 183 191 195 210 212 216 213 218 207 219 243 250 251 245
2 5 354 344 337 314 309 330 320 335 343 319 265 261 289 349 80 202 226 219 211 207 208 192 188 208 207 214 203 198 201 190 198 214 222 223 233 244 261 273 272 268 266
45 33 26 17 8 355 345 311 320 339 341 313 289 263 326 89 154 183 194 203 225 212 213 200 196 207 218 202 195 216 236 196 195 207 210 222 239 242 254 264 279 272 263
31 38 35 37 35 15 356 347 320 318 325 314 294 243 266 243 205 221 225 215 215 207 204 221 212 199 199 198 218 241 243 224 224 236 228 233 237 244 263 268 270 271 289
Wind_Speed_850mb
73 64 52 44 45 40 36 36 34 28 23 22 23 20 10 7 17 29 40 48 54 52 54 56 52 51 48 39 34 32 28 31 31 36 36 33 34 31 29 34 41 43 43
78 69 59 49 45 40 30 26 29 26 23 20 18 18 12 16 18 22 19 23 32 40 57 58 49 56 49 46 44 39 35 35 32 36 32 31 35 35 33 37 37 35 37
86 78 69 56 47 43 34 27 26 27 27 24 20 20 24 26 18 12 9 9 13 16 36 44 43 51 48 39 35 43 42 43 38 34 30 13 21 23 28 25 26 22 14
87 85 77 62 50 45 36 29 27 25 31 28 26 20 23 17 14 14 11 8 10 6 16 29 32 34 39 43 37 36 36 39 41 35 42 43 36 20 12 14 11 15 10
95 89 82 60 48 42 34 34 29 28 39 31 28 22 18 12 11 13 8 4 8 8 8 14 22 22 30 33 34 32 34 39 40 39 43 46 41 40 35 26 17 13 12
87 84 72 54 49 42 34 30 33 33 35 33 35 29 24 23 17 14 12 4 2 4 6 11 14 13 16 23 27 26 24 21 27 29 34 39 37 34 32 30 20 25 31
87 81 72 58 54 51 42 34 31 33 42 35 30 37 30 24 23 18 13 6 3 7 2 5 7 8 7 8 19 20 17 12 16 16 13 25 30 30 25 27 20 20 27
82 80 71 63 56 54 49 42 34 28 43 38 33 29 28 25 19 19 19 14 5 8 9 3 5 6 12 13 9 12 12 9 16 12 10 21 24 26 28 29 27 22 24
83 82 75 65 55 57 58 48 38 29 34 40 33 35 25 25 24 25 19 13 8 6 7 7 3 4 8 8 12 14 12 12 9 11 14 12 15 23 27 34 30 36 32
80 80 72 61 51 54 55 51 42 32 29 35 34 30 21 27 28 28 24 28 21 18 12 10 7 8 8 5 8 12 15 17 15 14 7 5 8 15 24 27 27 31 29
70 70 62 55 50 53 53 55 46 38 34 37 31 25 21 25 29 32 32 30 30 26 30 26 22 14 6 2 2 5 5 4 8 6 14 17 17 20 24 26 26 30 31
70 67 64 64 58 52 52 59 52 41 38 37 34 27 24 27 29 32 29 27 30 23 20 17 22 16 10 10 11 6 12 7 7 6 15 14 18 24 17 20 21 28 34
70 69 71 62 58 57 61 60 54 42 36 43 41 35 31 30 32 31 30 23 26 19 22 21 16 12 20 13 10 9 14 11 12 11 12 18 17 16 21 20 20 24 36
72 71 71 62 62 62 69 63 55 44 37 43 46 44 40 33 30 35 31 28 25 21 20 15 13 15 14 16 15 14 14 17 19 13 14 12 12 15 20 19 17 19 32
37 55 62 59 57 62 67 61 51 42 39 42 51 47 43 34 30 31 36 33 28 26 22 24 22 19 17 21 15 25 20 8 15 17 15 7 11 18 16 15 10 11 10
6 25 45 39 38 45 55 50 45 38 54 53 53 46 43 41 34 37 38 36 30 26 32 32 30 26 25 25 22 26 24 17 16 9 8 8 5 5 4 7 10 7 12
28 36 22 28 30 37 40 42 44 45 59 56 53 51 49 51 43 40 42 38 36 35 35 32 32 23 24 22 20 28 31 25 23 18 12 9 5 6 5 1 12 14 14
31 31 27 22 22 11 34 41 43 55 53 54 55 62 62 60 51 48 51 48 44 39 38 37 31 29 30 22 20 25 26 29 31 24 19 11 8 2 2 4 3 4 13
30 29 32 28 23 19 13 22 57 44 58 68 65 69 70 69 62 64 58 51 46 44 39 35 32 34 28 17 19 24 27 30 37 32 27 16 11 11 7 10 10 3 4
34 38 41 27 21 22 28 35 23 18 53 70 79 75 76 74 84 71 59 51 49 50 41 37 37 32 23 15 15 19 26 34 33 32 28 23 17 17 12 20 14 12 8
25 24 24 34 31 32 35 40 27 31 36 45 60 46 62 125 100 51 34 48 55 52 42 36 29 27 15 9 8 15 28 37 36 32 24 20 18 17 17 15 19 16 16
18 19 20 18 21 30 34 38 25 32 42 46 55 37 38 51 95 34 48 54 56 46 44 39 29 26 17 6 6 16 29 35 34 27 23 17 16 13 12 12 16 22 21
30 29 30 29 21 18 24 29 35 40 31 30 33 27 31 23 62 48 67 62 53 51 46 35 24 28 27 16 10 12 26 29 29 25 22 19 16 16 14 9 12 17 23
35 29 29 29 27 25 25 27 34 36 31 20 18 22 16 22 22 25 62 55 43 38 40 39 31 27 30 22 14 11 19 22 21 21 21 21 25 24 22 23 23 23 24
28 33 35 36 35 28 21 17 27 30 28 25 25 17 16 11 23 33 35 37 46 42 47 38 37 30 35 26 18 12 13 16 15 12 16 14 12 15 13 13 16 14 20
25 35 34 33 32 31 27 22 18 17 19 22 18 17 16 22 24 31 39 43 39 37 34 33 27 31 28 19 15 15 15 11 11 17 19 19 14 18 20 22 26 24 27
Wind_Direction_850mb
168 172 175 182 188 204 213 217 219 213 197 178 172 172 163 199 210 218 235 243 247 244 242 239 228 225 225 222 228 237 232 240 228 239 237 230 239 248 254 249 268 263 262
167 168 173 183 196 204 208 203 208 204 205 197 184 172 175 222 247 265 246 255 256 247 234 235 235 232 233 231 232 238 250 257 250 250 251 252 256 259 260 268 268 264 268
164 168 173 183 193 204 210 205 209 202 194 183 184 193 203 223 241 247 242 293 283 260 233 235 237 232 235 237 242 235 247 246 242 247 243 225 244 246 248 269 267 266 243
174 173 175 183 197 202 208 208 212 200 190 196 205 239 217 230 251 244 292 306 329 315 229 224 225 222 234 238 236 243 249 251 251 246 244 245 252 245 254 259 248 256 200
176 175 178 187 191 196 205 209 208 197 188 194 203 212 226 243 241 248 244 307 321 334 225 208 220 217 229 221 232 248 247 249 254 254 251 250 246 247 252 259 266 261 268
171 178 178 183 182 193 207 213 213 200 188 202 209 207 218 229 233 249 221 244 44 355 119 167 189 197 210 227 239 242 240 247 254 247 247 239 228 238 247 248 268 271 267
168 177 176 177 175 190 204 213 211 203 197 205 212 219 224 223 233 230 197 170 314 293 161 154 185 219 245 225 233 236 241 252 249 226 222 236 242 245 245 251 240 238 253
167 176 177 177 176 186 201 214 212 207 201 201 209 210 222 232 233 195 196 203 246 241 200 204 155 222 224 236 238 216 241 230 253 250 244 255 254 250 246 254 252 233 256
164 172 177 178 181 187 197 212 209 210 205 199 208 213 218 224 212 204 200 195 220 175 148 128 105 333 296 239 237 240 237 238 247 249 231 235 259 261 261 257 254 253 244
161 170 176 182 191 193 194 206 213 221 209 195 198 206 221 219 218 209 195 191 199 216 173 166 216 270 301 276 253 238 234 241 233 229 243 233 248 270 268 262 255 248 247
163 176 178 180 182 185 190 202 209 217 199 188 189 200 218 210 210 198 195 199 205 210 224 225 208 220 200 141 295 295 278 275 271 285 265 265 272 274 270 270 260 249 243
170 171 175 174 180 188 189 203 208 217 207 194 192 211 227 205 207 206 211 221 224 223 200 187 185 197 192 202 204 258 264 277 264 288 286 281 271 274 280 285 271 255 243
169 175 176 181 186 188 191 201 208 218 211 198 203 208 227 213 215 208 216 227 220 214 185 187 190 201 185 212 213 258 228 222 242 254 262 273 274 274 283 277 270 257 243
169 177 179 182 187 191 195 200 207 220 217 202 202 212 221 224 221 209 215 227 224 216 185 186 188 200 211 214 214 231 253 240 220 229 263 255 260 279 288 286 278 254 242
164 180 174 178 184 195 202 201 209 218 216 213 209 215 217 221 219 217 210 225 233 216 200 208 214 218 230 247 243 223 236 210 189 201 229 265 292 298 291 264 259 247 245
130 122 153 175 177 189 204 206 212 220 222 222 221 217 218 216 219 217 218 223 230 210 215 216 223 238 240 243 241 232 221 216 213 182 212 246 292 27 326 233 200 224 231
16 64 126 189 202 212 219 213 221 228 226 232 228 222 224 218 212 208 216 227 225 222 233 234 228 235 246 252 257 221 226 223 204 197 194 208 184 257 23 190 204 217 230
3 352 12 17 30 24 240 247 248 243 229 236 233 230 226 221 214 208 206 215 223 223 233 231 222 227 242 256 240 229 227 205 203 199 179 213 224 200 95 91 103 244 218
20 349 338 344 4 344 310 257 251 249 236 230 238 234 225 224 222 213 208 218 215 226 224 229 233 230 237 246 248 230 223 206 202 202 204 205 228 193 208 221 179 268 29
14 360 350 337 318 297 287 269 297 268 252 249 246 233 239 235 235 213 206 219 218 221 218 225 234 237 232 230 239 220 207 200 201 196 198 198 212 222 213 209 220 206 207
351 348 354 351 333 315 297 294 298 275 269 265 262 271 291 308 324 172 205 207 215 221 213 212 223 233 222 224 233 205 204 199 194 193 197 196 206 203 218 218 222 238 252
329 327 325 333 348 339 333 329 312 271 276 280 278 281 282 271 299 293 241 227 218 215 201 195 210 232 218 232 203 188 177 187 196 200 191 201 210 221 208 221 227 232 238
339 336 327 309 301 314 315 321 317 319 317 306 285 269 312 338 1 248 233 224 212 206 198 204 205 208 226 223 205 183 191 195 210 212 216 213 218 207 219 243 250 251 245
2 5 354 344 337 314 309 330 320 335 343 319 265 261 289 349 80 202 226 219 211 207 208 192 188 208 207 214 203 198 201 190 198 214 222 223 233 244 261 273 272 268 266
45 33 26 17 8 355 345 311 320 339 341 313 289 263 326 89 154 183 194 203 225 212 213 200 196 207 218 202 195 216 236 196 195 207 210 222 239 242 254 264 279 272 263
31 38 35 37 35 15 356 347 320 318 325 314 294 243 266 243 205 221 225 215 215 207 204 221 212 199 199 198 218 241 243 224 224 236 228 233 237 244 263 268 270 271 289